User: anonymous   Login
Location: Albany
(35.0000°S, 118.0000°E)
Time: 17:10:58
(UTC-04:00)
Language:

Cosmos 1758 Rocket - Orbit

View from above orbital plane
View from above orbital plane
View from above satellite
View from above satellite

Ground track
Ground track

The orbit data is extracted from the following two-line orbital elements,

1 16792U 86046B   18173.23514545  .00000052  00000-0  33296-5 0  9993
2 16792  82.4823 214.2006 0024991 151.4070 275.5772 14.83182107729730
Epoch (UTC): 22 June 2018 05:38:36
Eccentricity: 0.0024991
inclination: 82.4823°
perigee height: 602 km
apogee height: 637 km
right ascension of ascending node: 214.2006°
argument of perigee: 151.4070°
revolutions per day: 14.83182107
mean anomaly at epoch: 275.5772°
orbit number at epoch: 72973

The dashed part of the orbit path shows where the satellite is in the earth's shadow,  

DLR